Sparta, WI

5:07 AM CDT on May 27, 2017 (GMT -0500)
Sparta-Fort McCoy

Weather History for KCMY - May, 2013

Change the Weather History Date:

Tuesday, May 14, 2013

  Actual Average Record
Temperature  
Mean Temperature 68 °F -  
Max Temperature 91 °F 67 °F 91 °F (2013)
Min Temperature 46 °F 42 °F 28 °F (1973)
Cooling Degree Days 3    
Growing Degree Days 18 (Base 50)    
Moisture  
Dew Point 45 °F    
Average Humidity 41    
Maximum Humidity 79    
Minimum Humidity 15    
Precipitation  
Precipitation 0.00 in - - ()
Sea Level Pressure  
Sea Level Pressure 29.65 in    
Wind  
Wind Speed 6 mph (SSW)    
Max Wind Speed 22 mph    
Max Gust Speed 31 mph    
Visibility 10 miles    
Events Rain    
Averages and records for this station are not official NWS values.
T = Trace of Precipitation, MM = Missing Value Source: NWS Daily Summary

Daily Weather History Graph

Daily Weather History Graph

Search for Another Location

Airport or City:

Trip Planner

Search our weather history database for the weather conditions in past years. The results will help you decide how hot, cold, wet, or windy it might be!

Date:

Astronomy

May. 14, 2013 Rise Set
Actual Time 5:37 AM CDT 8:21 PM CDT
Civil Twilight 5:04 AM CDT 8:54 PM CDT
Nautical Twilight 4:22 AM CDT 9:36 PM CDT
Astronomical Twilight 3:34 AM CDT 10:25 PM CDT
Moon 9:17 AM CDT (5/14) No Moon Set
Length of Visible Light 15h 50m
Length of Day
14h 43m
Waxing Crescent, 19% of the Moon is Illuminated
May 14
Waxing Crescent
May 17
First Quarter
May 24
Full
May 31
Last Quarter
Jun 8
New

Hourly Weather History & Observations

Time (CDT) Temp. Dew Point Humidity Pressure Visibility Wind Dir Wind Speed Gust Speed Precip Events Conditions
12:15 AM 59.7 °F 36.5 °F 42% 29.79 in 10.0 mi SSW 10.4 mph 19.6 mph N/A   Clear
12:35 AM 59.4 °F 37.2 °F 44% 29.78 in 10.0 mi SSW 8.1 mph - N/A   Clear
12:55 AM 59.9 °F 37.9 °F 44% 29.77 in 10.0 mi South 10.4 mph - N/A   Clear
1:15 AM 59.5 °F 38.7 °F 46% 29.75 in 10.0 mi South 8.1 mph - N/A   Clear
1:35 AM 59.4 °F 39.2 °F 47% 29.75 in 10.0 mi South 6.9 mph - N/A   Clear
1:55 AM 59.0 °F 39.6 °F 49% 29.74 in 10.0 mi South 5.8 mph - N/A   Clear
2:15 AM 59.2 °F 40.1 °F 49% 29.73 in 10.0 mi SSW 6.9 mph - N/A   Clear
2:35 AM 58.8 °F 40.5 °F 51% 29.73 in 10.0 mi SW 4.6 mph - N/A   Clear
2:55 AM 58.5 °F 41.0 °F 52% 29.73 in 10.0 mi SSW 4.6 mph - N/A   Clear
3:15 AM 57.9 °F 41.2 °F 54% 29.72 in 10.0 mi SSW 3.5 mph - N/A   Clear
3:35 AM 57.7 °F 41.9 °F 56% 29.72 in 10.0 mi SSW 4.6 mph - N/A   Clear
3:55 AM 57.6 °F 42.4 °F 57% 29.71 in 10.0 mi SSW 3.5 mph - N/A   Clear
4:15 AM 57.6 °F 42.8 °F 58% 29.71 in 10.0 mi SSW 3.5 mph - N/A   Clear
4:35 AM 56.7 °F 43.0 °F 60% 29.71 in 10.0 mi South 3.5 mph - N/A   Clear
4:55 AM 57.0 °F 43.5 °F 61% 29.71 in 10.0 mi Calm Calm - N/A   Clear
5:15 AM 55.9 °F 43.5 °F 63% 29.71 in 10.0 mi Calm Calm - N/A   Clear
5:35 AM 54.1 °F 43.0 °F 66% 29.71 in 10.0 mi Calm Calm - N/A   Clear
5:55 AM 46.4 °F 40.1 °F 79% 29.72 in 10.0 mi Calm Calm - N/A   Clear
6:15 AM 48.2 °F 41.9 °F 79% 29.72 in 10.0 mi Calm Calm - N/A   Clear
6:35 AM 49.3 °F 42.8 °F 78% 29.72 in 10.0 mi Calm Calm - N/A   Clear
6:55 AM 53.2 °F 44.8 °F 73% 29.72 in 10.0 mi Calm Calm - N/A   Clear
7:15 AM 57.6 °F 46.9 °F 68% 29.72 in 10.0 mi Calm Calm - N/A   Clear
7:35 AM 61.9 °F 47.5 °F 59% 29.71 in 10.0 mi Calm Calm - N/A   Clear
7:55 AM 63.5 °F 47.5 °F 56% 29.71 in 10.0 mi SW 4.6 mph - N/A   Clear
8:15 AM 64.9 °F 47.5 °F 53% 29.71 in 10.0 mi WSW 4.6 mph - N/A   Clear
8:35 AM 66.7 °F 48.0 °F 51% 29.72 in 10.0 mi West 3.5 mph - N/A   Clear
8:55 AM 68.2 °F 47.7 °F 48% 29.71 in 10.0 mi WSW 5.8 mph - N/A   Clear
9:15 AM 69.4 °F 48.0 °F 46% 29.71 in 10.0 mi WNW 3.5 mph - N/A   Clear
9:35 AM 71.4 °F 47.5 °F 42% 29.71 in 10.0 mi Calm Calm - N/A   Clear
9:55 AM 72.7 °F 48.4 °F 42% 29.72 in 10.0 mi WNW 4.6 mph - N/A   Clear
10:15 AM 74.8 °F 47.1 °F 37% 29.73 in 10.0 mi Calm Calm - N/A   Clear
10:35 AM 76.8 °F 43.9 °F 31% 29.72 in 10.0 mi Calm Calm - N/A   Clear
10:55 AM 79.3 °F 44.6 °F 29% 29.72 in 10.0 mi Calm Calm - N/A   Clear
11:15 AM 81.3 °F 40.8 °F 24% 29.71 in 10.0 mi Calm Calm - N/A   Clear
11:35 AM 84.7 °F 41.2 °F 21% 29.71 in 10.0 mi SW 4.6 mph - N/A   Clear
11:55 AM 83.3 °F 41.5 °F 23% 29.73 in 10.0 mi WSW 4.6 mph - N/A   Clear
12:15 PM 82.0 °F 44.8 °F 27% 29.76 in 10.0 mi WNW 9.2 mph - N/A   Clear
12:35 PM 82.2 °F 42.6 °F 25% 29.76 in 10.0 mi WNW 6.9 mph - N/A   Clear
12:55 PM 81.5 °F 43.9 °F 26% 29.73 in 10.0 mi South 4.6 mph - N/A   Clear
1:15 PM 81.7 °F 45.1 °F 28% 29.74 in 10.0 mi NNE 9.2 mph - N/A   Clear
1:35 PM 82.6 °F 40.3 °F 22% 29.73 in 10.0 mi NNE 4.6 mph - N/A   Clear
1:55 PM 85.3 °F 37.9 °F 19% 29.70 in 10.0 mi ESE 4.6 mph - N/A   Clear
2:15 PM 86.5 °F 41.9 °F 21% 29.66 in 10.0 mi SE 11.5 mph 18.4 mph N/A   Clear
2:35 PM 87.6 °F 42.1 °F 20% 29.64 in 10.0 mi SE 11.5 mph 17.3 mph N/A   Clear
2:55 PM 89.1 °F 41.7 °F 19% 29.61 in 10.0 mi SSE 11.5 mph 20.7 mph N/A   Clear
3:15 PM 89.4 °F 41.2 °F 18% 29.60 in 10.0 mi SSE 17.3 mph 20.7 mph N/A   Clear
3:35 PM 90.3 °F 37.0 °F 15% 29.59 in 10.0 mi SSW 16.1 mph 27.6 mph N/A   Clear
3:55 PM 89.6 °F 39.6 °F 17% 29.58 in 10.0 mi South 13.8 mph 25.3 mph N/A   Clear
4:15 PM 90.7 °F 42.3 °F 18% 29.57 in 10.0 mi South 16.1 mph 21.9 mph N/A   Clear
4:35 PM 90.5 °F 41.9 °F 18% 29.57 in 10.0 mi South 13.8 mph 21.9 mph N/A   Clear
4:55 PM 90.9 °F 41.9 °F 18% 29.56 in 10.0 mi South 9.2 mph 21.9 mph N/A   Clear
5:15 PM 87.8 °F 42.8 °F 21% 29.55 in 10.0 mi South 16.1 mph 23.0 mph N/A   Clear
5:35 PM 84.0 °F 50.2 °F 31% 29.53 in 7.0 mi SSW 12.7 mph 24.2 mph N/A Rain Rain
5:55 PM 87.6 °F 48.4 °F 26% 29.52 in 10.0 mi South 21.9 mph 28.8 mph N/A   Scattered Clouds
6:15 PM 87.3 °F 47.1 °F 25% 29.51 in 10.0 mi South 18.4 mph 27.6 mph N/A   Clear
6:35 PM 87.6 °F 48.0 °F 25% 29.50 in 10.0 mi South 11.5 mph 23.0 mph N/A   Clear
6:55 PM 86.4 °F 48.4 °F 27% 29.49 in 10.0 mi South 16.1 mph 31.1 mph N/A   Clear
7:15 PM 85.3 °F 49.3 °F 29% 29.48 in 10.0 mi South 12.7 mph 29.9 mph N/A   Clear
7:35 PM 84.2 °F 50.0 °F 30% 29.48 in 10.0 mi South 13.8 mph 21.9 mph N/A   Clear
7:55 PM 82.4 °F 50.5 °F 33% 29.50 in 10.0 mi SW 5.8 mph 18.4 mph N/A   Clear
8:15 PM 80.6 °F 51.3 °F 36% 29.50 in 10.0 mi SW 8.1 mph - N/A   Clear
8:35 PM 79.3 °F 52.0 °F 38% 29.51 in 10.0 mi SW 4.6 mph - N/A   Clear
8:55 PM 79.0 °F 52.3 °F 39% 29.51 in 10.0 mi SSW 8.1 mph - N/A   Clear
9:15 PM 78.6 °F 52.2 °F 40% 29.51 in 10.0 mi SW 6.9 mph - N/A   Clear
9:35 PM 77.0 °F 52.7 °F 43% 29.53 in 10.0 mi SSW 4.6 mph - N/A   Clear
9:55 PM 75.9 °F 52.7 °F 44% 29.53 in 10.0 mi SW 3.5 mph - N/A   Clear
10:15 PM 69.8 °F 53.8 °F 57% 29.54 in 10.0 mi Calm Calm - N/A   Clear
10:35 PM 67.1 °F 54.5 °F 64% 29.55 in 10.0 mi Calm Calm - N/A   Clear
10:55 PM 69.8 °F 51.3 °F 52% 29.56 in 10.0 mi WSW 5.8 mph - N/A   Clear
11:15 PM 66.4 °F 51.4 °F 59% 29.57 in 10.0 mi West 3.5 mph - N/A   Clear
11:35 PM 69.3 °F 46.8 °F 45% 29.58 in 10.0 mi West 8.1 mph - N/A   Clear
11:55 PM 67.1 °F 45.1 °F 45% 29.60 in 10.0 mi West 3.5 mph - N/A   Clear